Creek Data

    Home     View Charts     View Raw Data     Messages

ID Distance Battery Voltage Battery Current Internal Temp Internal Humidity External Temp Solar Input rssi snr Time Stamp Record
64195 14.8 3.79 0 46 48 44 5.1 -80 6 01/23/2026 10:45 AM 46949
64194 14.8 3.80 0 46 48 44 5.1 -79 8 01/23/2026 10:30 AM 46948
64193 14.8 3.80 0 45 48 44 5.1 -80 7 01/23/2026 10:15 AM 46947
64192 14.8 3.80 0 45 48 44 5.1 -80 7 01/23/2026 10:00 AM 46946
64191 14.8 3.81 0 45 48 43 5.1 -80 8 01/23/2026 09:45 AM 46945
64190 14.7 3.89 29 44 48 43 4.6 -81 9 01/23/2026 09:30 AM 46944
64189 14.7 3.86 23 44 48 43 4.5 -82 8 01/23/2026 09:15 AM 46943
64188 14.7 3.99 5 43 48 43 4.5 -82 8 01/23/2026 09:00 AM 46942
64187 14.7 3.97 0 43 48 42 4.5 -80 7 01/23/2026 08:45 AM 46941
64186 14.7 3.77 -14 43 48 42 4.5 -80 8 01/23/2026 08:30 AM 46940
64185 14.7 3.88 6 42 48 42 4.5 -79 8 01/23/2026 08:15 AM 46939
64184 14.7 3.71 0 42 49 42 4.5 -79 7 01/23/2026 08:00 AM 46938
64183 14.7 3.83 0 41 49 42 4.5 -79 8 01/23/2026 07:45 AM 46937
64182 14.7 3.70 -10 41 49 41 4.5 -79 8 01/23/2026 07:30 AM 46936
64181 14.7 3.69 -5 41 49 41 2.1 -79 7 01/23/2026 07:15 AM 46935
64180 14.7 3.82 -5 41 49 42 0.4 -79 8 01/23/2026 07:00 AM 46934
64179 14.7 3.69 -5 41 49 41 0 -79 8 01/23/2026 06:45 AM 46933
64178 14.7 3.83 -5 41 49 42 0 -79 7 01/23/2026 06:30 AM 46932
64177 14.7 3.69 -5 41 49 42 0 -79 8 01/23/2026 06:15 AM 46931
64176 14.7 3.69 -5 42 48 42 0 -79 8 01/23/2026 06:00 AM 46930
64175 14.7 3.83 -5 41 48 42 0 -80 7 01/23/2026 05:45 AM 46929
64174 14.7 3.83 -5 41 48 42 0.1 -80 7 01/23/2026 05:30 AM 46928
64173 14.7 3.68 -5 41 48 42 0.1 -80 8 01/23/2026 05:15 AM 46927
64172 14.7 3.83 -5 40 48 42 0 -80 7 01/23/2026 05:00 AM 46926
64171 14.7 3.70 -5 40 48 41 0 -80 7 01/23/2026 04:45 AM 46925